DK0GS-10 Weather Reports


Display with metric or nautical units.
time (UTC)temp
F
wind
direction
speed
MPH
gust
MPH
rain 1hr
in
rain 24hr
in
rain mn
in
humidity
%
barometer
mb
20260506164522 54 0.0 0.0 0.00 0.93 0.84 92 1004.6
20260506163522 54 0.0 0.0 0.00 0.93 0.84 92 1004.5
20260506162536 54 0.0 1.0 0.00 0.93 0.84 92 1004.4
20260506161522 55 0.0 2.0 0.00 0.93 0.84 92 1004.2
20260506160522 55 0.0 3.0 0.00 0.93 0.84 91 1004.3
20260506155522 55 0.0 2.0 0.00 0.93 0.84 91 1004.4
20260506154522 55 0.0 4.0 0.00 0.93 0.84 91 1004.4
20260506153523 55 0.0 4.0 0.00 0.93 0.84 90 1004.4
20260506152602 55 0.0 2.0 0.00 0.93 0.84 91 1004.4
20260506151601 55 180 1.0 3.0 0.00 0.93 0.84 91 1004.4
20260506150522 55 180 1.0 5.0 0.00 0.93 0.84 91 1004.3
20260506145522 55 0.0 2.0 0.00 0.93 0.84 92 1004.4
20260506144522 54 0.0 3.0 0.00 0.93 0.84 92 1004.3
20260506143522 54 0.0 3.0 0.00 0.93 0.84 92 1004.4
20260506142522 54 0.0 2.0 0.00 0.93 0.84 92 1004.4
20260506141522 54 0.0 2.0 0.00 0.93 0.84 93 1004.3
20260506140522 54 0.0 3.0 0.00 0.93 0.84 93 1004.3
20260506135522 54 0.0 1.0 0.00 0.93 0.84 94 1004.3
20260506134547 54 180 1.0 5.0 0.00 0.93 0.84 93 1004.3
20260506133601 54 0.0 2.0 0.00 0.93 0.84 94 1004.4
20260506132547 54 0.0 3.0 0.00 0.93 0.84 94 1004.3
20260506131522 54 0.0 1.0 0.00 0.93 0.84 95 1004.3
20260506130522 54 0.0 1.0 0.00 0.93 0.84 95 1004.3
20260506125547 54 0.0 2.0 0.00 0.93 0.84 95 1004.3
20260506124522 53 0.0 2.0 0.00 0.93 0.84 96 1004.3
20260506123522 53 0.0 2.0 0.00 0.93 0.84 96 1004.3
20260506122601 53 0.0 3.0 0.00 0.93 0.84 96 1004.3
20260506121601 53 0.0 2.0 0.00 0.93 0.84 96 1004.2
20260506120522 53 0.0 1.0 0.00 0.93 0.84 96 1004.1
20260506115522 53 0.0 2.0 0.00 0.93 0.84 96 1004.0
20260506114522 53 0.0 3.0 0.00 0.93 0.84 96 1003.9
20260506113522 53 0.0 2.0 0.00 0.93 0.84 97 1003.8
20260506112522 53 0.0 1.0 0.00 0.93 0.84 97 1004.0
20260506111536 53 0.0 2.0 0.00 0.93 0.84 97 1003.9
20260506110522 52 0.0 3.0 0.00 0.93 0.84 97 1004.1
20260506105522 52 0.0 3.0 0.00 0.93 0.84 97 1004.0
20260506104547 52 0.0 2.0 0.00 0.93 0.84 97 1004.1
20260506103522 52 0.0 2.0 0.00 0.93 0.84 97 1004.0
20260506102611 52 0.0 3.0 0.00 0.93 0.84 97 1003.9
20260506101522 52 0.0 4.0 0.00 0.93 0.84 97 1003.9
20260506100521 52 0.0 2.0 0.00 0.93 0.84 97 1003.8
20260506095521 52 180 1.0 4.0 0.00 0.93 0.84 97 1003.8
20260506094522 52 0.0 3.0 0.00 0.93 0.84 97 1003.8
20260506093521 52 0.0 3.0 0.00 0.93 0.84 97 1003.7
20260506092522 51 0.0 3.0 0.00 0.93 0.84 97 1003.7
20260506091522 51 180 1.0 3.0 0.00 0.93 0.84 97 1003.7
20260506090522 51 0.0 3.0 0.00 0.93 0.84 97 1003.6
20260506085521 51 0.0 3.0 0.01 0.93 0.84 97 1003.6
20260506084521 51 0.0 2.0 0.02 0.93 0.84 97 1003.5
20260506083522 51 0.0 3.0 0.04 0.93 0.84 97 1003.4
20260506082535 51 180 1.0 3.0 0.05 0.93 0.84 97 1003.4
20260506081535 51 0.0 3.0 0.05 0.93 0.84 97 1003.4
20260506080521 51 0.0 4.0 0.06 0.93 0.84 97 1003.5
20260506072521 51 0.0 1.0 0.03 0.88 0.79 97 1003.4
20260506071521 51 0.0 1.0 0.03 0.88 0.79 97 1003.4
20260506070521 51 0.0 0.0 0.02 0.87 0.78 97 1003.4
20260506061522 50 0.0 0.0 0.02 0.86 0.76 97 1003.2
20260506060521 50 0.0 0.0 0.02 0.86 0.76 97 1003.1
20260506050521 50 0.0 0.0 0.06 0.84 0.74 97 1003.1
20260506044521 50 0.0 0.0 0.04 0.81 0.71 97 1003.3
20260506043600 50 0.0 0.0 0.06 0.82 0.71 97 1003.2
20260506042600 50 0.0 0.0 0.08 0.82 0.70 97 1003.2
20260506041521 50 0.0 0.0 0.09 0.82 0.69 96 1003.2
20260506040650 50 0.0 1.0 0.09 0.83 0.68 96 1003.2
20260506035535 50 0.0 1.0 0.11 0.84 0.68 96 1003.2
20260506034535 50 0.0 1.0 0.11 0.84 0.67 96 1003.3
20260506033535 50 0.0 1.0 0.11 0.82 0.65 96 1003.4
20260506032521 50 0.0 1.0 0.10 0.80 0.62 96 1003.6
20260506031535 50 0.0 1.0 0.10 0.78 0.60 96 1003.7
20260506030521 50 0.0 1.0 0.11 0.77 0.59 96 1003.7
20260506025521 50 0.0 0.0 0.12 0.75 0.57 96 1003.9
20260506024521 50 0.0 0.0 0.14 0.74 0.56 96 1004.0
20260506023521 51 0.0 1.0 0.14 0.72 0.54 96 1004.1
20260506022521 51 0.0 2.0 0.14 0.70 0.52 96 1004.1
20260506021535 51 0.0 2.0 0.15 0.68 0.50 96 1004.2
20260506020546 51 0.0 3.0 0.17 0.66 0.48 96 1004.2
20260506015521 51 0.0 3.0 0.16 0.63 0.45 96 1004.3
20260506014521 51 0.0 1.0 0.15 0.60 0.42 96 1004.4
20260506013546 51 0.0 3.0 0.15 0.59 0.40 96 1004.4
20260506012521 51 0.0 3.0 0.17 0.57 0.38 96 1004.4
20260506011521 51 0.0 2.0 0.16 0.54 0.35 96 1004.4
20260506010520 51 0.0 4.0 0.13 0.50 0.31 96 1004.5
20260506005534 51 0.0 3.0 0.13 0.48 0.29 96 1004.6
20260506004521 51 0.0 2.0 0.13 0.46 0.27 96 1004.6
20260506003521 51 180 1.0 3.0 0.12 0.44 0.25 96 1004.8
20260506002523 51 0.0 2.0 0.10 0.40 0.21 96 1004.9
20260506001523 51 0.0 2.0 0.09 0.38 0.19 96 1005.0
20260506000547 51 0.0 2.0 0.10 0.37 0.18 96 1005.0
20260505235522 51 0.0 1.0 0.09 0.35 0.16 96 1005.1
20260505234522 51 0.0 1.0 0.08 0.33 0.14 96 1005.3
20260505233522 51 0.0 1.0 0.08 0.32 0.13 96 1005.3
20260505232522 51 0.0 3.0 0.07 0.30 0.11 95 1005.3
20260505231523 52 0.0 2.0 0.08 0.29 0.10 95 1005.4
20260505230522 52 0.0 2.0 0.07 0.27 0.08 95 1005.4
20260505225522 52 0.0 2.0 0.08 0.27 0.07 95 1005.4
20260505224601 52 0.0 2.0 0.08 0.26 0.06 95 1005.4
20260505223522 52 0.0 3.0 0.08 0.25 0.05 95 1005.4
20260505222522 52 0.0 2.0 0.08 0.24 0.04 95 1005.5
20260505221536 52 0.0 2.0 0.07 0.22 0.02 95 1005.6
20260505220523 52 0.0 3.0 0.07 0.21 0.01 95 1005.7
20260505215523 52 0.0 2.0 0.06 0.19 0.19 95 1005.7
20260505214612 53 0.0 2.0 0.05 0.18 0.18 95 1005.7
20260505213536 53 0.0 3.0 0.05 0.17 0.17 95 1005.8
20260505212522 53 0.0 2.0 0.04 0.16 0.16 95 1005.9
20260505211522 53 0.0 1.0 0.03 0.15 0.15 95 1005.9
20260505210523 53 180 1.0 4.0 0.03 0.14 0.14 95 1005.8
20260505205536 53 0.0 3.0 0.02 0.13 0.13 94 1005.8
20260505204601 53 180 1.0 4.0 0.02 0.13 0.13 94 1005.8
20260505203601 53 180 1.0 2.0 0.01 0.12 0.12 94 1005.9
20260505202523 54 180 1.0 5.0 0.01 0.12 0.12 94 1005.9
20260505201522 54 180 1.0 3.0 0.01 0.12 0.12 94 1005.8
20260505200522 54 180 1.0 4.0 0.00 0.11 0.11 94 1005.9
20260505195522 54 180 1.0 3.0 0.00 0.11 0.11 93 1005.8
20260505194522 54 180 1.0 3.0 0.00 0.11 0.11 93 1005.8
20260505193522 54 180 1.0 6.0 0.00 0.12 0.11 93 1005.8
20260505192522 54 180 1.0 3.0 0.00 0.16 0.11 92 1005.8
20260505191522 55 180 1.0 3.0 0.00 0.18 0.11 92 1005.8
20260505190522 55 180 1.0 3.0 0.00 0.22 0.11 91 1005.7
20260505185536 55 180 1.0 3.0 0.00 0.28 0.11 91 1005.7
20260505184522 56 180 1.0 4.0 0.00 0.29 0.11 90 1005.7
20260505183522 56 180 2.0 5.0 0.00 0.29 0.11 90 1005.8
20260505182536 56 180 1.0 4.0 0.00 0.29 0.11 90 1005.8
20260505181522 56 180 1.0 4.0 0.00 0.29 0.11 89 1005.9
20260505180522 57 180 1.0 3.0 0.00 0.29 0.11 89 1005.9
20260505175522 57 180 1.0 4.0 0.00 0.29 0.11 89 1006.0
20260505174522 57 180 1.0 5.0 0.00 0.29 0.11 88 1005.9
20260505173547 58 180 1.0 5.0 0.00 0.29 0.11 88 1005.9
20260505172522 58 0.0 2.0 0.00 0.29 0.11 88 1006.0
20260505171523 58 180 1.0 6.0 0.00 0.29 0.11 88 1006.0
20260505170547 58 180 1.0 4.0 0.00 0.29 0.11 88 1006.0
20260505165522 58 0.0 3.0 0.00 0.29 0.11 87 1006.1